[[{"header":{"parameterUnit":"m.s-1","parameterCategory":1,"la1":30.2991,"la2":30.254,"lo1":-89.0895,"lo2":-89.0444,"dy":0.0017,"dx":0.0017,"nx":28,"ny":28,"refTime":"2023-10-27T03:00:00:Z","depth":0,"parameterNumber":2,"parameterNumberName":"U-component_of_WINDS"},"data":[0,0,0,0,0,0,0,0,0,0,0,0,0,0,0,0,0,0,0,0,0,0,0,0,0,0,0,0,0,0,0,0,0,0,0,0,0,0,0,0,0,0,0,0,0,0,0,0,0,0,0,0,0,0,0,0,0,0,-2.7085,-2.7086,0,-2.7127,-2.7128,-2.7128,-2.708,-2.7078,-2.7076,-2.7075,-2.7119,-2.7122,-2.7124,0,0,0,0,0,0,0,0,0,0,0,0,0,-2.6967,-2.6969,-2.7085,-2.7086,-2.7086,-2.7127,-2.7128,-2.7128,-2.708,-2.7078,-2.7076,-2.7074,-2.7118,-2.7121,-2.7125,0,0,0,0,0,0,0,0,0,0,0,0,0,-2.7015,-2.697,-2.7085,-2.7067,-2.7066,-2.7127,-2.7128,-2.7128,-2.7081,-2.7078,-2.7075,-2.7073,-2.7117,-2.7121,-2.7125,-2.7206,0,0,-2.7138,-2.714,0,0,0,0,0,0,0,0,-2.7012,-2.7019,-2.7069,-2.7069,-2.7067,-2.7096,-2.7102,-2.7154,-2.7081,-2.7075,-2.7075,-2.7071,-2.7113,-2.7118,-2.7132,-2.7208,-2.721,-2.7139,-2.7141,-2.7143,-2.7144,0,0,0,0,0,0,0,-2.7009,-2.7017,-2.7102,-2.707,-2.7069,-2.7058,-2.7062,-2.7112,-2.7109,-2.7076,-2.7072,-2.7078,-2.7112,-2.7128,-2.7132,-2.721,-2.7138,-2.7142,-2.7145,-2.7147,-2.7357,-2.736,0,0,0,0,0,0,-2.7007,-2.7015,-2.71,-2.7103,-2.7032,-2.7063,-2.7067,-2.7089,-2.7108,-2.7109,-2.708,-2.7075,-2.7122,-2.7127,-2.7134,-2.723,-2.7143,-2.7147,-2.7149,-2.7354,-2.7358,-2.7361,0,0,0,0,0,0,-2.7005,-2.7015,-2.7099,-2.7058,-2.7068,-2.7067,-2.7093,-2.7092,-2.7107,-2.7112,-2.7111,-2.7096,-2.712,-2.7128,-2.7189,-2.7231,-2.7149,-2.7153,-2.7351,-2.7355,-2.7359,-2.7423,0,0,0,0,0,0,-2.7002,-2.7015,-2.7044,-2.7059,-2.707,-2.7152,-2.7096,-2.7094,-2.7114,-2.7108,-2.7126,-2.7127,-2.7118,-2.7182,-2.7193,-2.7235,-2.7156,-2.7347,-2.7353,-2.7358,-2.7417,-2.7429,-2.7439,0,0,0,0,0,-2.6998,-2.7061,-2.7046,-2.7057,-2.7107,-2.7155,-2.7161,-2.7149,-2.7118,-2.7148,-2.7152,-2.7126,-2.7225,-2.7189,-2.72,-2.7245,-2.7344,-2.7351,-2.7358,-2.7412,-2.7427,-2.7439,0,0,0,0,0,0,-2.7051,-2.7062,-2.7046,-2.7116,-2.7135,-2.7146,-2.7184,-2.7165,-2.7194,-2.7187,-2.7172,-2.7177,-2.7242,-2.725,-2.7209,-2.7325,-2.7279,-2.7289,-2.7317,-2.7331,-2.7342,-2.7338,-2.716,0,0,0,0,0,-2.7071,-2.7108,-2.7116,-2.7176,-2.7187,-2.7184,-2.7205,-2.7194,-2.7213,-2.7221,-2.7229,-2.7249,-2.7285,-2.7309,-2.7342,-2.7419,-2.7422,-2.7455,-2.7466,-2.7475,-2.7483,-2.7526,-2.7541,-2.7383,-2.7383,-2.7383,0,0,-2.7112,-2.7123,-2.7147,-2.7188,-2.7201,-2.724,-2.7191,-2.7235,-2.7264,-2.7228,-2.7285,-2.7293,-2.7315,-2.7384,-2.7415,-2.7393,-2.7528,-2.7484,-2.7491,-2.7494,-2.7534,-2.7549,-2.7562,-2.7388,-2.7387,-2.7386,0,0,-2.7207,-2.7219,-2.7271,-2.7286,-2.7307,-2.7305,-2.7318,-2.7334,-2.7337,-2.7395,-2.7369,-2.7405,-2.7466,-2.7483,-2.75,-2.7605,-2.7583,-2.7616,-2.7674,-2.7716,-2.7728,-2.7739,-2.7776,-2.779,-2.7624,-2.7625,-2.7625,0,-2.7256,-2.7313,-2.73,-2.7346,-2.7365,-2.7335,-2.7388,-2.7404,-2.7435,-2.7449,-2.7424,-2.7502,-2.7514,-2.7588,-2.7614,-2.7628,-2.7643,-2.7613,-2.7727,-2.7738,-2.7748,-2.7784,-2.7798,-2.7628,-2.7628,-2.7628,-2.7627,0,-2.7372,-2.7413,-2.7453,-2.7483,-2.7507,-2.7557,-2.7552,-2.7579,-2.7567,-2.7569,-2.763,-2.7644,-2.768,-2.7697,-2.7686,-2.777,-2.7756,-2.7729,-2.7683,-2.7767,-2.78,-2.7814,-2.7634,-2.7633,-2.7631,-2.763,0,0,-2.7499,-2.7524,-2.7539,-2.7553,-2.7576,-2.7607,-2.7657,-2.7692,-2.7715,-2.7738,-2.7779,-2.7834,-2.781,-2.7829,-2.782,-2.7857,-2.794,-2.7826,-2.7827,-2.7847,-2.8035,-2.8054,-2.807,-2.7927,-2.7929,-2.7931,-2.8033,0,-2.7595,-2.7678,-2.7669,-2.775,-2.7788,-2.7761,-2.7804,-2.7824,-2.7827,-2.7861,-2.7866,-2.7904,-2.787,-2.7881,-2.7917,-2.7922,-2.7978,-2.7915,-2.7965,-2.7967,-2.7959,-2.8087,-2.8107,-2.8201,-2.8046,-2.8048,-2.8049,0,-2.7716,-2.7744,-2.7828,-2.7846,-2.7862,-2.79,-2.7933,-2.7965,-2.7988,-2.7988,-2.8011,-2.7996,-2.8047,-2.8002,-2.8072,-2.803,-2.8051,-2.8057,-2.8061,-2.8064,-2.8012,-2.8093,-2.8231,-2.8245,-2.807,-2.8068,-2.8067,0,-2.78,-2.7859,-2.7917,-2.793,-2.7953,-2.7981,-2.7992,-2.8011,-2.8034,-2.8063,-2.8078,-2.8113,-2.8132,-2.816,-2.8156,-2.8123,-2.8229,-2.8182,-2.8231,-2.8231,-2.8252,-2.8251,-2.8396,-2.8268,-2.8268,-2.8267,-2.8267,0,-2.7906,-2.7959,-2.7955,-2.7991,-2.8049,-2.804,-2.8099,-2.8107,-2.8125,-2.8163,-2.8143,-2.8179,-2.8172,-2.8209,-2.8207,-2.8266,-2.8275,-2.8277,-2.8276,-2.8278,-2.8278,-2.829,-2.8283,-2.8271,-2.827,-2.8269,-2.8269,0,-2.8009,-2.8009,-2.807,-2.8088,-2.8093,-2.8136,-2.8151,-2.8186,-2.8189,-2.8237,-2.8248,-2.8253,-2.8295,-2.8295,-2.8343,-2.8342,-2.8415,-2.8406,-2.8407,-2.8405,-2.8453,-2.8448,-2.861,-2.8631,-2.849,-2.8491,-2.8492,0,-2.8076,-2.8116,-2.8138,-2.8162,-2.8174,-2.8213,-2.8236,-2.8229,-2.8254,-2.8284,-2.8315,-2.8356,-2.8388,-2.8457,-2.8466,-2.8503,-2.8495,-2.8549,-2.85,-2.8502,-2.8496,-2.8493,-2.8497,-2.8558,-2.856,-2.8561,-2.8562,0,-2.8196,-2.8194,-2.8228,-2.8262,-2.829,-2.8317,-2.8341,-2.8362,-2.8358,-2.8388,-2.8431,-2.8456,-2.8506,-2.8547,-2.8583,-2.8596,-2.8579,-2.8578,-2.8591,-2.8593,-2.8592,-2.8593,-2.8432,-2.8574,-2.8572,-2.8572,-2.8571,-2.8571,-2.8283,-2.8317,-2.8338,-2.8377,-2.8395,-2.8419,-2.8452,-2.846,-2.8495,-2.8535,-2.853,-2.8578,-2.8602,-2.8649,-2.8666,-2.8704,-2.8685,-2.8704,-2.8709,-2.8714,-2.8719,-2.8587,-2.8711,-2.8711,-2.871,-2.871,-2.871,0,-2.8401,-2.8414,-2.8449,-2.8484,-2.8515,-2.8497,-2.8524,-2.8551,-2.8594,-2.8617,-2.8649,-2.87,-2.874,-2.8753,-2.8792,-2.8821,-2.8814,-2.8832,-2.8829,-2.8832,-2.8733,-2.8718,-2.8836,-2.8836,-2.8836,-2.8836,-2.8836,-2.8836,-2.8466,-2.8524,-2.8525,-2.8592,-2.8605,-2.8651,-2.8669,-2.8691,-2.871,-2.8767,-2.88,-2.8808,-2.8828,-2.8869,-2.8906,-2.8909,-2.8925,-2.8945,-2.8945,-2.8852,-2.8839,-2.8827,-2.8812,-2.8948,-2.8949,-2.904,-2.9041,-2.9042]},{"header":{"parameterUnit":"m.s-1","parameterCategory":1,"la1":30.2991,"la2":30.254,"lo1":-89.0895,"lo2":-89.0444,"dy":0.0017,"dx":0.0017,"nx":28,"ny":28,"refTime":"2023-10-27T03:00:00:Z","depth":0,"parameterNumber":3,"parameterNumberName":"V-component_of_WINDS"},"data":[0,0,0,0,0,0,0,0,0,0,0,0,0,0,0,0,0,0,0,0,0,0,0,0,0,0,0,0,0,0,0,0,0,0,0,0,0,0,0,0,0,0,0,0,0,0,0,0,0,0,0,0,0,0,0,0,0,0,1.6661,1.6661,0,1.6731,1.6732,1.6732,1.677,1.677,1.677,1.677,1.684,1.6841,1.6843,0,0,0,0,0,0,0,0,0,0,0,0,0,1.6558,1.656,1.666,1.6661,1.6662,1.6731,1.6732,1.6733,1.677,1.677,1.677,1.677,1.6839,1.6841,1.6843,0,0,0,0,0,0,0,0,0,0,0,0,0,1.6613,1.656,1.666,1.6689,1.6692,1.6731,1.6732,1.6733,1.677,1.677,1.677,1.677,1.6838,1.6841,1.6844,1.6858,0,0,1.6852,1.6853,0,0,0,0,0,0,0,0,1.661,1.6616,1.6684,1.6687,1.6691,1.6742,1.6721,1.6775,1.677,1.674,1.677,1.677,1.6807,1.6812,1.6825,1.6861,1.6864,1.6852,1.6854,1.6855,1.6855,0,0,0,0,0,0,0,1.6606,1.6614,1.6688,1.6685,1.6689,1.6698,1.6706,1.6731,1.6772,1.6743,1.6746,1.6754,1.6809,1.6822,1.6827,1.6865,1.6852,1.6854,1.6856,1.6857,1.6919,1.6919,0,0,0,0,0,0,1.6598,1.661,1.6686,1.669,1.665,1.67,1.6709,1.6725,1.6772,1.6779,1.6754,1.6755,1.6818,1.6824,1.6829,1.6851,1.6855,1.6857,1.6859,1.6919,1.6919,1.6919,0,0,0,0,0,0,1.6595,1.6604,1.6683,1.6651,1.6662,1.6702,1.672,1.6727,1.674,1.678,1.6787,1.676,1.6818,1.6826,1.6851,1.6853,1.6858,1.6861,1.6919,1.6919,1.6919,1.6892,0,0,0,0,0,0,1.6592,1.6603,1.6608,1.6651,1.6664,1.6704,1.672,1.6728,1.6745,1.6748,1.6788,1.6795,1.6819,1.6847,1.6854,1.6857,1.6863,1.6919,1.6919,1.6919,1.6892,1.6891,1.6889,0,0,0,0,0,1.6588,1.6597,1.6609,1.6617,1.6672,1.6704,1.6711,1.6739,1.6745,1.6751,1.6777,1.6793,1.6852,1.6849,1.6857,1.6861,1.6919,1.6919,1.6919,1.6893,1.6891,1.6889,0,0,0,0,0,0,1.6552,1.6603,1.6616,1.6639,1.6667,1.671,1.6718,1.6736,1.6761,1.6763,1.6796,1.6805,1.6828,1.6847,1.6843,1.6879,1.6887,1.6889,1.6865,1.6863,1.6862,1.6856,1.6865,0,0,0,0,0,1.6547,1.6569,1.6612,1.6628,1.6642,1.6678,1.6693,1.6713,1.6742,1.6754,1.6782,1.6809,1.6835,1.685,1.6875,1.6896,1.6906,1.6903,1.6901,1.69,1.6901,1.6915,1.6915,1.6919,1.6919,1.6919,0,0,1.6536,1.6567,1.6578,1.6622,1.6646,1.6668,1.6687,1.6709,1.6727,1.6757,1.6783,1.6805,1.6838,1.6862,1.6874,1.6879,1.6902,1.69,1.6898,1.69,1.6915,1.6915,1.6914,1.6919,1.6919,1.6919,0,0,1.6528,1.6553,1.657,1.6594,1.6631,1.6655,1.6659,1.6701,1.6716,1.6744,1.6768,1.6789,1.683,1.6854,1.6871,1.6875,1.6892,1.6883,1.6874,1.6887,1.6887,1.6887,1.6889,1.689,1.6884,1.6883,1.6883,0,1.6509,1.6544,1.6576,1.6598,1.6617,1.6648,1.6666,1.6687,1.673,1.6742,1.6748,1.6803,1.6827,1.6858,1.6859,1.6872,1.6878,1.6878,1.6885,1.6885,1.6885,1.6888,1.6889,1.6882,1.6882,1.6882,1.6883,0,1.6521,1.6545,1.6554,1.6596,1.6616,1.6636,1.6671,1.6688,1.6706,1.673,1.6759,1.679,1.6823,1.6831,1.6849,1.6865,1.6867,1.6878,1.6887,1.6883,1.6886,1.6887,1.688,1.6881,1.6881,1.6882,0,0,1.6489,1.6551,1.6554,1.6574,1.6618,1.6638,1.6659,1.6693,1.6707,1.6736,1.6756,1.6792,1.6803,1.6823,1.6844,1.6856,1.6859,1.6866,1.6867,1.6864,1.688,1.6872,1.6872,1.687,1.6871,1.6871,1.6878,0,1.6488,1.6529,1.6559,1.6589,1.6612,1.6643,1.6662,1.6691,1.6715,1.6738,1.6764,1.679,1.6802,1.6815,1.6828,1.6856,1.6863,1.6856,1.6889,1.689,1.6879,1.6874,1.6864,1.6869,1.6879,1.6879,1.6879,0,1.6491,1.6521,1.6553,1.6597,1.6608,1.6624,1.6659,1.6681,1.6715,1.6732,1.6755,1.6778,1.6803,1.681,1.6846,1.684,1.6856,1.6872,1.6873,1.6877,1.6884,1.6877,1.6871,1.6871,1.6881,1.6881,1.6881,0,1.6466,1.6514,1.654,1.6556,1.6608,1.6619,1.6641,1.6676,1.6695,1.6725,1.6738,1.677,1.6787,1.6812,1.6843,1.6845,1.6876,1.6885,1.689,1.6889,1.6894,1.6893,1.689,1.6904,1.6904,1.6904,1.6904,0,1.6461,1.6479,1.653,1.6545,1.6568,1.6603,1.6624,1.6649,1.668,1.6702,1.673,1.675,1.6789,1.6814,1.6838,1.6864,1.6872,1.6886,1.6892,1.6883,1.6882,1.6894,1.6894,1.6905,1.6904,1.6904,1.6904,0,1.6436,1.647,1.6501,1.6548,1.6561,1.6575,1.6616,1.6633,1.6659,1.6686,1.6694,1.6735,1.6766,1.68,1.6841,1.6857,1.6882,1.6891,1.6871,1.6875,1.6878,1.6877,1.6882,1.6885,1.6897,1.6896,1.6896,0,1.643,1.6446,1.6495,1.6513,1.6534,1.6561,1.6581,1.6617,1.6637,1.6679,1.6691,1.6725,1.6753,1.6801,1.6834,1.6866,1.6876,1.6876,1.6881,1.6873,1.6877,1.6876,1.6878,1.6874,1.6873,1.6873,1.6873,0,1.6417,1.6434,1.6462,1.6498,1.6521,1.655,1.6581,1.6593,1.6635,1.6656,1.6689,1.6711,1.6755,1.6788,1.6825,1.6847,1.6867,1.6872,1.6874,1.6865,1.6854,1.6861,1.6867,1.6871,1.6871,1.6871,1.6871,1.6871,1.6402,1.6418,1.6456,1.6487,1.6515,1.6543,1.6562,1.6591,1.6619,1.6658,1.6678,1.6711,1.6747,1.6799,1.6822,1.6848,1.6854,1.6858,1.6859,1.686,1.6858,1.685,1.6855,1.6855,1.6855,1.6855,1.6855,0,1.6391,1.6418,1.6446,1.6489,1.6514,1.6532,1.6567,1.6587,1.6615,1.6648,1.6676,1.6715,1.6747,1.6784,1.6819,1.6834,1.6844,1.6842,1.6841,1.6846,1.685,1.6844,1.6833,1.6833,1.6833,1.6833,1.6833,1.6833,1.6388,1.6416,1.6438,1.6481,1.6508,1.6541,1.6559,1.6586,1.6612,1.6654,1.6682,1.6707,1.6742,1.678,1.6811,1.6821,1.6833,1.6828,1.6841,1.6844,1.6845,1.6847,1.6842,1.683,1.683,1.6835,1.6835,1.6835]}]]